RH
2 3 3 3 2 3 3 3 3 6 6 8 9 9 10 12 10 11 12 14 16 16 17 17 17 16 15 14 13 14 17 16 15 16 16 15 17 17 16 16 17 15 12 12
3 3 3 3 3 3 3 4 4 5 6 7 9 10 10 11 11 12 11 13 17 19 16 16 17 16 16 16 15 15 14 13 14 12 14 15 16 17 16 16 15 13 13 13
3 3 3 3 3 3 4 4 4 5 6 8 10 11 11 11 12 11 12 13 17 19 19 17 17 17 16 15 16 15 13 12 13 13 14 16 18 19 18 17 16 14 15 14
3 3 3 4 4 4 4 4 4 5 6 8 10 11 11 12 12 12 12 12 14 20 18 17 19 20 17 15 14 12 13 12 14 16 18 21 22 20 20 20 20 18 18 14
4 4 4 5 5 4 4 5 5 6 6 7 9 11 10 11 12 13 12 12 12 15 18 17 15 16 18 17 14 13 13 14 18 21 23 26 24 21 21 23 24 23 19 13
4 4 5 5 6 6 5 6 5 5 6 6 8 10 8 10 12 12 12 12 13 13 18 19 16 16 17 16 15 14 16 18 21 30 38 34 29 25 25 28 29 25 18 14
4 5 6 6 6 6 6 6 6 6 6 7 8 9 9 11 11 13 12 11 12 12 15 20 18 16 18 16 14 13 16 24 26 33 32 35 37 28 27 33 31 27 19 19
4 5 6 6 7 6 6 6 6 7 6 6 6 7 6 8 10 11 12 12 12 12 12 17 18 16 18 20 16 14 16 19 22 30 32 32 35 30 33 37 33 35 22 24
6 6 6 7 8 7 6 7 6 6 7 6 6 6 6 5 7 9 11 10 10 12 12 12 16 18 17 19 18 17 19 21 21 28 34 35 31 32 37 40 39 40 30 38
6 8 8 7 7 7 7 6 7 7 7 7 7 7 7 7 6 6 9 10 10 10 11 11 11 16 19 16 17 19 22 23 23 28 33 33 30 33 36 38 47 44 36 43
10 11 12 11 8 7 6 5 6 7 7 7 6 6 5 6 5 5 6 8 10 10 11 10 10 12 16 14 16 21 20 21 23 26 33 28 28 32 36 42 54 56 54 68
7 6 9 10 12 12 10 6 5 5 7 6 6 7 6 5 4 5 5 5 8 10 9 9 9 9 13 15 13 16 19 18 18 22 22 22 23 27 31 42 53 63 61 73
11 10 10 10 10 11 11 10 7 6 6 7 6 6 6 6 5 4 4 5 5 8 9 8 9 9 9 12 15 13 16 15 16 20 21 18 23 23 34 32 50 50 55 70
11 12 12 11 10 10 11 10 9 8 7 7 6 6 5 5 4 4 4 5 4 4 7 8 8 9 9 9 13 15 14 16 16 16 21 22 26 29 34 28 50 42 57 68
11 10 12 13 11 11 10 9 10 10 9 7 6 6 6 5 5 4 4 4 5 4 4 6 8 8 8 9 10 13 14 15 16 17 18 21 26 28 32 30 34 53 53 75
11 11 9 8 8 10 12 11 10 10 9 8 7 7 6 5 4 4 4 4 4 4 4 4 6 7 7 8 9 10 13 14 16 18 17 19 21 27 26 32 25 48 43 69
17 22 25 24 22 20 14 12 11 12 11 10 8 7 6 6 5 4 5 5 5 5 5 4 4 6 7 8 9 9 10 13 14 16 18 18 18 21 23 26 31 34 43 45
14 17 18 18 19 18 16 14 13 12 11 10 8 8 7 6 5 4 4 5 5 5 5 4 4 5 7 7 8 9 9 11 14 14 16 18 19 19 19 24 28 31 48 56
23 24 21 18 17 18 17 15 14 13 12 12 11 9 8 7 6 5 5 5 6 6 5 4 4 4 5 7 7 8 9 9 12 14 14 16 19 21 22 22 25 31 38 61
24 25 24 23 22 23 22 20 18 15 14 11 10 9 9 8 7 6 6 6 6 6 6 5 5 4 5 6 7 8 8 10 10 12 15 16 18 22 24 25 25 28 31 42
26 26 27 28 26 27 24 20 18 16 17 14 13 12 11 9 8 7 6 6 6 6 6 6 5 5 5 6 7 8 9 9 10 10 13 16 16 19 24 25 26 26 29 33
29 28 29 29 30 28 26 24 23 20 19 18 15 13 13 12 11 10 8 8 8 8 7 6 6 6 6 6 7 8 9 10 11 11 11 14 17 17 19 23 25 26 27 28
32 31 31 33 35 33 29 31 30 27 24 22 19 16 14 14 14 13 12 10 9 9 8 8 6 6 7 7 8 8 9 9 10 10 11 12 15 18 19 19 21 26 26 27
32 33 34 36 35 37 39 37 32 28 28 30 28 24 23 19 17 15 14 14 12 11 10 9 8 7 7 7 8 8 9 9 10 10 10 11 12 13 17 19 19 19 21 25
34 35 38 39 38 46 46 41 39 37 37 34 34 31 28 24 22 20 19 18 16 14 12 10 9 9 8 8 7 8 9 10 10 10 11 11 11 12 13 14 17 18 19 19
36 37 42 41 38 44 45 44 48 47 42 40 37 34 32 30 29 28 26 23 21 19 17 14 13 11 10 9 8 8 8 8 10 11 11 12 12 12 12 12 14 15 18 20
34 35 36 41 42 44 46 46 43 41 39 39 38 35 33 31 30 29 28 25 23 22 21 20 18 16 15 13 11 10 10 10 9 10 12 12 13 13 13 12 13 13 14 14
Wind_Speed
75 64 58 52 43 38 39 40 40 41 43 44 47 50 53 56 57 60 59 60 64 66 68 69 69 71 73 77 81 85 87 89 89 88 86 84 84 83 81 78 77 76 74 70
67 58 50 43 39 34 36 36 34 36 38 41 44 49 51 54 57 59 60 62 64 67 68 69 70 71 72 72 75 80 83 85 84 83 81 79 77 76 75 73 72 73 69 66
62 54 46 40 36 32 30 33 34 34 36 40 44 47 50 52 57 58 59 61 64 67 68 68 68 68 69 72 73 76 78 78 78 79 76 74 72 71 70 68 68 66 63 62
58 50 43 38 34 32 29 27 28 32 37 40 45 48 51 52 55 59 59 62 65 67 70 69 68 67 67 70 72 72 72 71 71 74 71 70 68 66 68 64 64 63 61 59
54 48 41 37 33 31 26 24 23 28 32 39 44 50 51 52 55 60 59 61 63 65 67 67 68 67 66 65 66 68 67 66 65 68 69 67 66 66 65 62 62 61 59 56
51 45 40 35 31 29 26 23 24 25 30 36 43 50 51 50 54 58 59 59 62 63 64 66 66 63 64 65 65 66 63 63 64 67 68 67 67 66 63 62 61 60 58 55
46 40 36 33 29 26 24 23 24 24 29 34 40 47 49 49 52 56 58 58 60 63 63 66 66 63 62 62 66 67 64 65 67 66 67 66 67 66 63 61 60 57 57 54
47 39 34 31 28 25 23 20 23 25 27 32 36 42 48 49 51 53 57 59 60 63 65 66 65 62 62 61 63 62 66 68 68 67 68 68 67 66 64 60 59 57 56 54
47 42 35 29 27 26 21 20 21 23 26 29 31 36 42 47 50 52 55 58 60 63 67 67 66 63 62 65 62 61 65 68 68 68 70 70 69 67 65 60 58 58 56 54
47 39 39 32 25 23 22 20 19 22 23 24 27 32 35 40 45 49 52 57 58 61 64 65 63 64 66 65 63 64 66 69 68 70 72 72 70 68 66 62 60 60 58 55
35 36 31 36 34 27 22 19 19 20 21 24 26 29 32 37 42 45 48 53 57 58 62 64 62 63 67 68 67 67 68 68 69 72 75 74 72 69 69 64 61 62 59 55
42 36 30 25 25 27 28 25 19 15 17 21 22 24 27 32 37 40 43 47 52 56 59 62 62 62 64 67 69 69 69 69 70 70 75 73 72 70 71 66 63 62 61 57
39 41 33 27 21 20 22 24 23 18 14 16 19 18 23 26 30 35 39 41 45 52 57 58 60 60 60 64 67 69 69 68 69 70 73 73 72 72 71 68 66 64 63 57
36 30 30 27 23 20 19 20 20 18 16 13 14 16 18 22 25 28 32 36 39 44 52 55 56 58 59 61 65 68 68 69 70 71 73 73 73 73 72 72 67 66 63 60
33 30 26 22 20 18 16 15 16 17 15 11 9 11 14 17 21 24 27 30 34 38 42 50 54 54 57 61 63 65 66 68 68 70 73 74 74 74 72 72 70 69 65 62
30 24 20 19 17 17 17 16 15 14 13 10 8 8 11 15 18 21 24 27 30 33 36 41 49 52 53 57 61 64 65 67 69 69 71 73 74 72 72 72 71 71 69 66
25 21 21 20 17 15 15 14 13 12 12 11 9 7 8 11 15 19 22 25 27 30 32 35 41 48 51 53 58 61 64 65 66 67 69 70 71 72 73 72 71 70 69 68
21 20 18 15 12 11 11 10 10 11 11 8 6 6 5 6 13 16 19 21 23 25 28 31 35 41 48 51 53 57 60 63 63 64 66 67 67 69 72 72 72 72 71 69
19 19 17 17 15 16 17 15 14 13 11 9 7 5 3 3 6 11 14 16 19 21 23 27 32 36 42 47 49 52 56 58 60 61 63 64 64 65 67 70 72 72 74 73
19 18 18 17 18 19 16 15 13 12 12 10 8 6 3 1 3 7 10 12 13 15 18 23 28 32 36 41 44 46 50 53 55 57 59 61 63 64 65 67 70 73 74 74
16 16 16 16 16 16 15 15 14 12 13 10 8 7 5 2 2 5 9 12 12 14 16 19 24 29 34 38 41 42 43 47 51 53 57 60 62 63 64 65 66 68 71 71
16 16 15 14 15 15 16 17 18 17 14 14 10 8 9 7 5 2 5 8 9 10 13 15 19 23 28 32 37 40 42 43 46 50 53 57 59 60 61 63 64 65 65 67
13 12 11 12 12 12 12 16 16 15 15 15 13 11 9 9 7 4 2 5 7 9 11 13 16 20 26 30 33 36 38 40 43 46 49 51 55 59 61 61 63 64 64 65
11 11 9 9 8 11 13 11 11 12 14 15 15 14 11 9 8 5 4 3 3 5 8 11 13 16 20 25 30 34 36 38 39 41 44 48 51 54 58 60 61 62 63 63
9 10 8 7 7 6 5 7 10 11 11 12 13 12 11 9 8 8 7 6 5 3 4 6 9 12 16 19 24 29 34 36 37 38 40 43 46 49 52 54 56 59 60 62
9 9 8 6 5 4 4 4 4 3 4 6 6 6 7 7 7 7 6 6 7 7 6 5 6 7 11 15 18 21 26 32 35 36 38 39 41 43 45 48 52 54 58 60
11 9 7 6 5 5 5 6 4 4 3 2 2 2 2 2 3 2 2 3 3 5 7 7 8 9 9 11 15 18 21 24 29 33 36 37 37 38 39 41 44 47 51 54
Wind_Direction
321 319 314 309 301 289 278 267 260 253 251 245 241 239 235 235 233 230 228 227 227 224 224 226 226 226 227 227 226 225 225 228 228 229 231 233 234 237 240 242 243 243 246 247
323 321 316 308 301 292 280 271 261 251 246 244 238 237 236 232 233 231 230 228 223 225 225 225 226 227 227 228 228 229 229 228 229 230 231 231 233 236 239 241 242 244 245 244
325 322 317 310 304 295 281 271 259 247 239 235 233 232 233 230 231 231 229 227 227 225 224 226 227 228 229 229 228 228 230 230 229 231 230 231 231 234 237 239 241 244 244 243
325 323 320 314 307 297 286 276 266 255 240 230 231 228 227 227 226 229 228 227 226 225 225 223 224 227 227 228 229 229 229 230 229 230 229 230 232 234 237 238 240 242 244 244
325 324 321 315 307 298 290 280 263 252 244 238 230 229 226 225 224 226 227 226 226 226 227 227 227 226 225 227 227 228 230 228 226 228 228 229 230 231 234 235 237 239 241 242
328 324 320 315 307 300 293 281 267 250 242 238 233 232 232 224 225 227 226 226 226 225 226 227 227 226 227 225 223 225 225 227 223 221 224 226 229 230 231 232 235 237 238 238
327 323 320 315 310 302 291 279 269 256 243 238 234 235 234 228 225 227 227 226 225 226 224 225 226 224 225 227 224 222 219 221 222 222 223 224 227 228 229 230 235 234 237 237
328 326 323 318 313 306 297 282 267 261 249 243 238 234 235 228 226 226 226 224 224 225 225 223 224 223 223 224 223 222 219 219 220 221 223 223 224 225 225 227 231 233 236 236
328 327 325 322 315 308 300 289 275 263 257 248 242 239 238 237 229 225 226 226 223 222 226 225 221 220 221 223 221 218 219 220 218 217 220 222 223 224 224 225 228 231 232 236
329 329 326 323 320 309 298 290 278 270 263 254 243 237 235 239 239 232 226 227 225 222 224 227 226 220 218 220 220 219 219 219 217 215 218 220 222 223 223 223 225 230 230 233
330 326 322 318 319 317 305 293 279 271 261 255 250 242 233 230 233 235 230 226 227 225 223 225 224 223 221 219 218 220 219 219 218 216 218 220 221 221 222 222 223 228 227 230
336 333 334 322 312 307 307 309 304 285 268 265 256 250 243 236 234 235 233 230 225 227 227 224 225 222 220 222 219 219 219 218 218 218 220 222 222 220 223 221 223 225 226 227
329 325 330 331 326 308 301 301 305 304 290 267 262 248 244 243 236 235 236 233 228 224 227 227 225 225 222 221 223 222 220 220 219 217 220 221 221 222 223 221 223 223 224 225
325 326 328 328 327 318 312 305 302 303 295 288 265 254 245 243 242 236 235 235 232 228 224 227 226 222 222 221 222 223 222 221 220 220 220 221 220 221 222 224 221 225 223 224
329 329 329 326 321 316 308 303 299 298 300 291 269 253 246 235 236 237 234 231 232 231 228 225 226 224 220 219 221 222 221 222 223 222 223 222 222 223 223 226 222 225 223 223
331 326 327 332 336 338 335 326 320 313 311 306 283 252 236 234 230 231 229 227 227 228 226 225 223 223 221 219 220 221 221 220 222 222 223 225 225 224 225 227 228 225 227 224
337 348 348 343 336 330 328 329 325 314 305 301 292 275 250 235 235 229 227 226 223 226 224 223 222 221 221 219 218 220 222 221 221 221 223 224 226 225 225 226 227 228 230 229
342 344 351 354 349 351 355 353 346 346 340 333 322 310 294 248 229 232 227 223 223 224 224 220 220 219 219 220 219 219 221 222 222 221 223 224 224 226 226 226 226 228 228 231
345 348 355 2 14 18 12 10 9 7 4 4 2 351 332 277 236 229 231 227 221 221 225 222 220 218 217 218 219 219 220 221 222 222 222 223 225 225 227 228 228 228 228 230
350 353 356 7 16 11 9 9 11 7 11 5 12 15 15 28 201 211 220 227 221 215 217 218 214 215 215 215 216 218 218 219 221 222 223 223 224 225 226 228 230 230 231 231
350 351 357 8 13 9 22 23 28 37 29 9 17 31 33 60 163 207 213 216 212 207 205 209 210 210 210 207 210 213 217 218 218 219 222 224 224 224 226 227 230 233 233 235
350 349 0 10 12 19 26 34 28 28 35 31 32 46 55 64 76 124 202 206 203 204 206 203 204 207 209 211 210 209 210 213 216 218 219 221 225 227 226 228 230 232 234 236
345 349 355 5 13 11 28 35 33 37 40 43 44 47 59 63 66 74 131 185 192 199 203 203 201 202 202 205 209 210 211 213 215 217 217 218 221 225 227 227 228 231 233 235
341 339 349 348 6 18 22 23 27 44 46 48 43 46 52 59 59 64 90 110 163 185 197 204 203 202 206 208 207 209 212 213 214 216 218 219 220 222 224 227 229 230 231 233
331 335 334 341 353 19 9 25 25 39 47 46 48 45 50 60 75 79 82 90 105 137 183 204 209 204 205 207 208 209 211 213 214 216 216 218 219 221 223 226 229 231 232 234
318 323 314 311 327 332 330 0 32 24 41 48 49 54 55 56 63 78 92 101 110 118 131 150 174 194 201 203 206 208 209 211 212 213 215 217 219 221 222 223 225 227 230 232
324 309 313 305 312 310 295 294 307 302 308 322 322 340 6 20 39 46 72 103 118 137 153 152 153 163 176 191 196 199 199 204 209 211 211 215 219 222 226 228 228 228 229 231